Weather History for Meeker, CO

Change the Weather History Date:

Monday, July 8, 2013

  Actual Average Record
Temperature  
Mean Temperature 68 °F 66 °F  
Max Temperature 84 °F 85 °F 95 °F (2003)
Min Temperature 51 °F 47 °F 43 °F (2005)
Degree Days  
Heating Degree Days 0 1  
Month to date heating degree days 0 10  
Since 1 June heating degree days 76 154  
Since 1 July heating degree days 0 10  
Cooling Degree Days 3 2  
Month to date cooling degree days 33 14  
Year to date cooling degree days 70 32  
Since 1 June cooling degree days 70 31  
Growing Degree Days 17 (Base 50)    
Moisture  
Dew Point 46 °F    
Average Humidity 52    
Maximum Humidity 83    
Minimum Humidity 20    
Precipitation  
Precipitation T in 0.03 in 1.22 in (2011)
Month to date precipitation 0.49 0.26  
Year to date precipitation 6.93 7.65  
Sea Level Pressure  
Sea Level Pressure 30.01 in    
Wind  
Wind Speed 6 mph (SW)    
Max Wind Speed 29 mph    
Max Gust Speed 38 mph    
Visibility 9 miles    
Events      
T = Trace of Precipitation, MM = Missing Value Source: NWS Daily Summary

Daily Weather History Graph

Daily Weather History Graph

Search for Another Location

Airport:

Trip Planner

Search our weather history database for the weather conditions in past years. The results will help you decide how hot, cold, wet, or windy it might be!

Date:

Astronomy

Jul. 08, 2013 Rise Set
Actual Time 5:50 AM MDT 8:42 PM MDT
Civil Twilight 5:18 AM MDT 9:14 PM MDT
Nautical Twilight 4:37 AM MDT 9:55 PM MDT
Astronomical Twilight 3:50 AM MDT 10:42 PM MDT
Moon 6:22 AM MDT (7/8) 8:46 PM MDT (7/8)
Length of Visible Light 15h 56m
Length of Day
14h 52m
New Moon, 0% of the Moon is Illuminated
Jul 8
New Moon
Jul 15
First Quarter
Jul 22
Full
Jul 29
Last Quarter
Aug 6
New

Hourly Weather History & Observations

Time (MDT) Temp. Dew Point Humidity Pressure Visibility Wind Dir Wind Speed Gust Speed Precip Events Conditions
12:53 AM 64.0 °F 48.0 °F 56% 29.95 in 10.0 mi SE 4.6 mph - 0.00 in   Overcast
1:53 AM 63.0 °F 48.9 °F 60% 29.94 in 10.0 mi NE 8.1 mph - N/A   Scattered Clouds
2:53 AM 60.1 °F 48.9 °F 67% 29.97 in 10.0 mi Calm Calm - N/A   Clear
3:53 AM 54.0 °F 48.0 °F 80% 30.01 in 10.0 mi Calm Calm - N/A   Mostly Cloudy
4:53 AM 54.0 °F 48.0 °F 80% 30.01 in 10.0 mi Calm Calm - N/A   Clear
5:53 AM 52.0 °F 46.9 °F 83% 30.01 in 10.0 mi NE 4.6 mph - N/A   Clear
6:53 AM 53.1 °F 46.9 °F 80% 30.02 in 10.0 mi Calm Calm - N/A   Clear
7:53 AM 60.1 °F 46.9 °F 62% 30.03 in 6.0 mi Calm Calm - N/A   Haze
8:53 AM 66.9 °F 48.0 °F 51% 30.02 in 10.0 mi Calm Calm - N/A   Clear
9:53 AM 73.0 °F 48.0 °F 41% 30.01 in 10.0 mi NE 3.5 mph - N/A   Clear
10:53 AM 78.1 °F 48.9 °F 36% 30.00 in 10.0 mi Calm Calm - N/A   Clear
11:53 AM 79.0 °F 44.1 °F 29% 29.97 in 7.0 mi West 13.8 mph 19.6 mph N/A   Scattered Clouds
12:49 PM 80.6 °F 42.8 °F 26% 30.25 in 4.0 mi West 11.5 mph 24.2 mph N/A   Haze
12:53 PM 80.1 °F 43.0 °F 27% 29.97 in 5.0 mi SW 12.7 mph - N/A   Haze
1:53 PM 75.9 °F 45.0 °F 33% 30.00 in 8.0 mi SW 13.8 mph 21.9 mph 0.00 in   Mostly Cloudy
2:12 PM 75.2 °F 42.8 °F 31% 30.26 in 4.0 mi SW 26.5 mph 32.2 mph N/A   Haze
2:53 PM 78.1 °F 46.0 °F 32% 29.99 in 10.0 mi SSW 9.2 mph - 0.00 in   Partly Cloudy
3:53 PM 79.0 °F 46.0 °F 31% 29.99 in 10.0 mi South 9.2 mph - N/A   Clear
4:53 PM 82.0 °F 43.0 °F 25% 29.96 in 10.0 mi SSW 6.9 mph - N/A   Clear
5:53 PM 82.0 °F 37.9 °F 21% 29.96 in 8.0 mi West 15.0 mph 26.5 mph N/A   Partly Cloudy
6:53 PM 80.1 °F 44.1 °F 28% 29.96 in 9.0 mi SSW 4.6 mph - N/A   Scattered Clouds
7:53 PM 80.1 °F 39.0 °F 23% 29.94 in 10.0 mi WNW 6.9 mph - N/A   Clear
8:53 PM 73.0 °F 45.0 °F 37% 29.97 in 10.0 mi Calm Calm - N/A   Partly Cloudy
9:53 PM 68.0 °F 46.9 °F 47% 29.99 in 10.0 mi NE 9.2 mph - N/A   Clear
10:53 PM 66.0 °F 45.0 °F 47% 30.00 in 10.0 mi NE 3.5 mph - N/A   Clear
11:53 PM 66.0 °F 46.0 °F 48% 30.00 in 10.0 mi ENE 6.9 mph - N/A   Clear